Location: Munkebjergskolens Observatorium
(55.3864°N, 10.3987°E)
Time: 04:47:34
(UTC+02:00)

CAS-6 - Pass Details

Date: 30 March 2023
Orbit: 610 x 632 km, 97.9° (Epoch: 31 May)

Event Time Altitude Azimuth Distance (km) Brightness Sun altitude
Exits shadow 00:20:53 26° 288° (WNW) 1,241 ? -29.7°
Drops below altitude 10° 00:23:46 10° 326° (NNW) 2,008 ? -29.8°
Sets 00:26:15 0° 339° (NNW) 2,924 ? -29.9°
